sat.trackr.live / text

‹ back to catalog

STARLINK-6056

NORAD 56813 · 2023-078AY

PAYLOAD ACTIVE UNKNOWN

§ Identity

Operator
Country
US
Launch date
2023-05-31
Launch site
AFWTR
Launch vehicle
Mass (kg)
RCS (m²)

Purposes: comms

External: N2YO · Heavens-Above · Gunter

§ Orbital elements

Epoch: 2026-05-25T02:57:55.850976Z

Period
96.11 min
Inclination
69.9984°
Eccentricity
0.0003589
Mean motion
14.98330930 rev/d
Perigee alt
569.6 km
Apogee alt
574.5 km
Semi-major
6,950.2 km
B*
-1.0262e-5
RAAN
151.5628°
Arg perigee
266.6716°
Mean anomaly
93.4033°
Rev number
16,413

§ Raw data

STARLINK-60561 56813U 23078AY  26145.12356309 -.00000216  00000+0 -10262-4 0  99952 56813  69.9984 151.5628 0003589 266.6716  93.4033 14.98330930164134

JSON: /api/v1/satellites/56813 · /tle

For live sub-satellite position, see the globe view (requires WebGL).

§ Visibility from observer

Set your observer location to see the next 7 days of passes ≥ 10°. The values pass through the URL so the page stays shareable.

No JS? Fill the form by hand. The geolocation button needs JavaScript.